Temp
-10 -10 -10 -10 -10 -10 -10 -10 -10 -10 -10 -9 -9 -10 -10 -10 -10 -11 -11 -11 -11 -11 -11 -10 -10 -11 -11 -12 -13 -14 -14 -14 -14 -15 -13 -14 -13 -14 -15 -16 -16 -15 -14 -12 -12
-10 -10 -10 -10 -10 -10 -10 -10 -10 -10 -10 -10 -10 -10 -10 -10 -11 -11 -11 -11 -11 -11 -11 -10 -11 -12 -13 -14 -14 -15 -14 -14 -15 -16 -17 -18 -18 -16 -15 -16 -16 -15 -14 -13 -13
-10 -11 -10 -10 -10 -10 -10 -10 -10 -10 -10 -10 -10 -10 -10 -10 -11 -11 -11 -11 -11 -11 -10 -11 -11 -12 -14 -14 -15 -14 -14 -15 -17 -19 -22 -21 -20 -19 -18 -18 -17 -15 -14 -13 -12
-10 -10 -10 -10 -10 -10 -10 -10 -10 -10 -10 -10 -10 -10 -10 -10 -11 -11 -11 -11 -11 -11 -11 -11 -12 -14 -14 -14 -15 -15 -14 -15 -19 -23 -23 -23 -22 -21 -19 -18 -18 -16 -14 -14 -14
-11 -11 -11 -10 -10 -10 -10 -10 -10 -10 -11 -10 -10 -10 -10 -10 -11 -11 -11 -11 -11 -11 -11 -11 -13 -15 -15 -15 -15 -15 -15 -18 -22 -24 -24 -24 -23 -23 -20 -18 -18 -17 -15 -14 -15
-10 -11 -11 -11 -11 -10 -10 -10 -10 -10 -11 -11 -10 -10 -10 -11 -11 -11 -11 -11 -11 -11 -11 -11 -14 -15 -15 -15 -15 -15 -16 -19 -23 -24 -25 -25 -24 -23 -21 -20 -18 -18 -17 -15 -15
-10 -10 -11 -11 -11 -11 -11 -11 -10 -11 -11 -11 -10 -10 -10 -11 -11 -11 -11 -12 -12 -11 -12 -12 -15 -15 -17 -15 -14 -16 -17 -20 -23 -23 -24 -24 -24 -24 -23 -21 -19 -18 -17 -16 -15
-10 -10 -11 -11 -11 -11 -11 -11 -11 -11 -11 -11 -11 -10 -10 -11 -11 -12 -12 -12 -12 -12 -12 -14 -15 -15 -16 -15 -14 -16 -18 -21 -22 -23 -24 -25 -24 -24 -24 -22 -20 -17 -17 -16 -16
-11 -11 -10 -11 -11 -11 -11 -11 -11 -11 -11 -11 -11 -11 -11 -11 -12 -12 -12 -12 -12 -12 -12 -15 -15 -15 -16 -15 -15 -16 -19 -22 -22 -23 -24 -24 -24 -24 -23 -22 -20 -19 -17 -16 -16
-11 -11 -11 -11 -11 -11 -11 -11 -11 -11 -11 -11 -11 -11 -11 -11 -12 -12 -12 -12 -12 -12 -13 -15 -15 -16 -17 -16 -15 -16 -18 -21 -22 -23 -23 -24 -24 -24 -22 -22 -20 -18 -17 -17 -15
-11 -11 -11 -11 -11 -11 -11 -11 -11 -11 -11 -11 -11 -11 -11 -12 -12 -12 -12 -13 -13 -12 -13 -14 -15 -15 -16 -17 -15 -17 -17 -19 -21 -22 -23 -23 -23 -23 -22 -22 -21 -20 -18 -17 -16
-11 -11 -11 -11 -11 -11 -11 -11 -11 -11 -11 -11 -11 -11 -12 -12 -12 -12 -12 -13 -13 -13 -13 -14 -15 -15 -16 -17 -15 -16 -16 -16 -19 -21 -21 -22 -21 -20 -20 -19 -20 -19 -17 -17 -16
-12 -11 -11 -12 -12 -12 -12 -12 -11 -11 -11 -11 -12 -12 -12 -12 -12 -12 -12 -13 -13 -13 -13 -14 -15 -16 -16 -17 -16 -15 -16 -16 -17 -19 -19 -20 -20 -19 -19 -17 -17 -17 -17 -17 -16
-12 -12 -12 -12 -12 -12 -12 -12 -12 -12 -12 -12 -12 -12 -12 -12 -12 -12 -13 -13 -13 -13 -14 -14 -15 -16 -16 -16 -17 -16 -15 -17 -16 -18 -18 -18 -18 -18 -17 -17 -17 -17 -16 -16 -16
-12 -12 -12 -12 -12 -12 -12 -12 -12 -12 -12 -12 -12 -13 -13 -13 -13 -13 -13 -13 -13 -13 -14 -14 -14 -15 -16 -16 -17 -17 -16 -15 -16 -16 -17 -18 -17 -17 -16 -17 -17 -17 -16 -16 -16
-13 -13 -12 -12 -12 -12 -12 -12 -12 -12 -12 -13 -13 -13 -13 -13 -13 -13 -13 -13 -13 -13 -14 -14 -14 -14 -15 -16 -16 -17 -17 -15 -16 -16 -16 -16 -17 -17 -17 -16 -16 -17 -17 -17 -17
-13 -13 -13 -13 -13 -13 -13 -13 -13 -13 -13 -13 -13 -13 -13 -13 -13 -13 -13 -13 -13 -14 -14 -14 -14 -14 -14 -16 -16 -17 -17 -16 -16 -15 -16 -16 -16 -16 -16 -16 -17 -16 -16 -15 -16
-14 -14 -14 -13 -13 -14 -14 -13 -13 -13 -13 -13 -13 -13 -14 -13 -13 -13 -13 -13 -13 -14 -14 -14 -14 -14 -14 -14 -16 -17 -17 -17 -17 -16 -16 -16 -15 -16 -15 -16 -16 -16 -17 -16 -16
-14 -14 -14 -14 -14 -14 -14 -14 -14 -13 -14 -14 -13 -14 -14 -14 -13 -13 -13 -14 -13 -14 -14 -14 -14 -14 -14 -14 -14 -15 -16 -17 -17 -17 -16 -16 -16 -16 -16 -16 -16 -16 -16 -16 -15
-14 -14 -14 -14 -14 -14 -14 -14 -14 -14 -14 -14 -14 -14 -14 -14 -14 -14 -13 -14 -14 -14 -14 -14 -14 -14 -14 -14 -14 -14 -15 -17 -17 -17 -17 -17 -17 -17 -17 -16 -16 -16 -16 -16 -16
-14 -14 -14 -14 -14 -15 -14 -14 -14 -14 -14 -14 -14 -14 -14 -14 -14 -14 -14 -14 -14 -14 -14 -14 -14 -14 -14 -14 -14 -14 -14 -15 -16 -16 -17 -17 -17 -17 -17 -17 -17 -17 -17 -17 -16
-15 -14 -14 -14 -14 -15 -15 -15 -14 -15 -14 -14 -14 -14 -14 -14 -14 -14 -14 -14 -14 -14 -14 -14 -14 -14 -14 -15 -15 -14 -14 -15 -15 -16 -16 -16 -17 -17 -17 -17 -17 -17 -17 -17 -17
-15 -14 -14 -14 -14 -15 -15 -15 -15 -15 -15 -15 -15 -14 -14 -14 -14 -14 -14 -14 -14 -14 -14 -14 -14 -14 -14 -14 -15 -15 -15 -15 -15 -15 -16 -16 -16 -17 -17 -17 -17 -17 -17 -17 -17
-15 -14 -14 -14 -15 -15 -15 -14 -15 -15 -15 -15 -15 -15 -15 -15 -15 -15 -15 -14 -14 -14 -14 -14 -14 -14 -14 -14 -15 -15 -15 -15 -15 -15 -16 -16 -16 -17 -17 -17 -17 -18 -18 -17 -17
-15 -14 -14 -15 -15 -15 -15 -15 -16 -15 -15 -16 -15 -15 -15 -15 -15 -15 -15 -15 -15 -14 -15 -14 -14 -14 -14 -14 -14 -15 -15 -15 -15 -15 -16 -16 -16 -16 -17 -17 -17 -18 -18 -18 -18
-15 -15 -15 -15 -15 -15 -15 -16 -16 -16 -15 -15 -15 -15 -15 -15 -16 -15 -15 -15 -15 -15 -15 -14 -15 -14 -15 -14 -14 -15 -15 -15 -16 -16 -16 -16 -17 -17 -17 -17 -18 -18 -18 -18 -19
-16 -16 -16 -15 -15 -16 -16 -16 -16 -16 -15 -16 -16 -16 -16 -16 -16 -16 -15 -15 -15 -15 -15 -15 -15 -14 -15 -14 -14 -15 -15 -15 -16 -16 -16 -16 -17 -17 -17 -17 -18 -18 -18 -18 -19
Height
5819 5819 5818 5818 5817 5815 5814 5813 5813 5811 5810 5808 5805 5802 5798 5794 5790 5787 5784 5781 5777 5772 5769 5763 5757 5749 5742 5734 5727 5720 5716 5712 5706 5695 5692 5694 5703 5710 5720 5733 5737 5737 5751 5756 5762
5815 5815 5814 5814 5813 5811 5809 5809 5808 5807 5806 5804 5801 5798 5794 5790 5786 5783 5779 5775 5771 5766 5763 5755 5746 5737 5729 5724 5721 5715 5707 5698 5688 5672 5664 5666 5678 5688 5701 5718 5724 5730 5741 5748 5753
5810 5809 5810 5809 5809 5808 5805 5804 5804 5803 5802 5800 5797 5794 5790 5786 5782 5779 5775 5771 5766 5760 5754 5747 5738 5728 5722 5720 5713 5702 5691 5679 5663 5646 5638 5645 5658 5670 5682 5693 5707 5718 5731 5737 5745
5805 5805 5805 5805 5804 5804 5802 5800 5800 5798 5797 5795 5792 5789 5785 5781 5779 5773 5770 5766 5760 5754 5748 5740 5731 5724 5720 5712 5704 5688 5673 5658 5641 5629 5622 5628 5640 5652 5670 5681 5692 5705 5722 5729 5737
5799 5800 5800 5800 5800 5799 5798 5796 5795 5794 5793 5791 5788 5784 5781 5777 5774 5769 5766 5763 5756 5750 5742 5733 5726 5720 5715 5706 5695 5675 5657 5635 5620 5615 5610 5616 5625 5636 5656 5666 5680 5693 5711 5723 5730
5793 5794 5795 5795 5794 5794 5793 5792 5791 5790 5789 5787 5784 5780 5777 5773 5770 5766 5762 5759 5753 5747 5739 5729 5720 5715 5709 5700 5683 5663 5645 5626 5614 5606 5603 5608 5614 5622 5643 5653 5668 5687 5702 5717 5725
5788 5788 5790 5790 5790 5789 5789 5788 5787 5786 5785 5783 5780 5776 5773 5769 5765 5762 5758 5755 5749 5743 5734 5725 5717 5711 5706 5694 5676 5658 5642 5622 5614 5608 5605 5606 5613 5620 5625 5642 5661 5681 5695 5707 5719
5784 5783 5784 5784 5785 5784 5784 5783 5782 5781 5780 5778 5776 5772 5769 5765 5762 5759 5754 5752 5746 5740 5730 5722 5716 5709 5702 5690 5675 5658 5640 5624 5616 5609 5605 5606 5608 5611 5618 5632 5648 5672 5694 5703 5710
5778 5778 5778 5779 5779 5779 5779 5779 5777 5776 5775 5773 5771 5768 5765 5762 5758 5756 5752 5748 5744 5737 5728 5720 5715 5709 5703 5693 5676 5659 5642 5630 5622 5615 5609 5609 5612 5614 5625 5637 5655 5669 5680 5692 5706
5773 5773 5772 5773 5773 5774 5774 5774 5773 5771 5770 5768 5766 5765 5761 5758 5755 5753 5750 5744 5740 5734 5727 5719 5715 5707 5703 5691 5677 5662 5649 5637 5630 5625 5620 5619 5620 5622 5631 5644 5652 5668 5681 5689 5702
5767 5767 5767 5768 5768 5767 5768 5769 5770 5768 5765 5762 5761 5758 5756 5755 5752 5750 5747 5743 5739 5734 5725 5720 5713 5708 5704 5693 5681 5670 5659 5647 5640 5639 5635 5632 5631 5636 5642 5648 5655 5664 5677 5691 5701
5761 5761 5762 5762 5762 5761 5762 5763 5763 5763 5761 5757 5755 5753 5752 5752 5749 5747 5744 5743 5737 5732 5725 5719 5714 5706 5706 5699 5689 5677 5667 5659 5652 5648 5649 5644 5644 5647 5655 5661 5666 5676 5687 5695 5703
5755 5756 5756 5757 5756 5756 5757 5757 5757 5757 5756 5754 5751 5750 5750 5749 5747 5745 5742 5739 5736 5732 5725 5719 5713 5709 5704 5703 5696 5685 5676 5669 5665 5657 5654 5655 5656 5658 5663 5668 5681 5689 5694 5700 5706
5750 5751 5751 5752 5753 5751 5751 5751 5752 5752 5751 5750 5748 5746 5746 5745 5744 5742 5740 5738 5735 5732 5727 5721 5714 5711 5707 5703 5700 5694 5686 5680 5675 5672 5668 5666 5668 5666 5670 5675 5681 5688 5696 5701 5706
5744 5745 5746 5746 5746 5747 5747 5746 5746 5747 5746 5745 5744 5743 5743 5743 5742 5740 5738 5735 5733 5730 5728 5722 5716 5711 5709 5705 5701 5700 5694 5688 5684 5681 5679 5678 5682 5682 5682 5683 5689 5691 5695 5699 5705
5738 5739 5739 5741 5741 5741 5741 5741 5742 5743 5741 5740 5740 5740 5740 5739 5739 5737 5735 5733 5730 5729 5726 5722 5718 5714 5709 5707 5703 5698 5697 5695 5691 5690 5689 5687 5686 5684 5689 5691 5696 5697 5698 5701 5705
5733 5735 5735 5735 5737 5737 5736 5737 5739 5737 5738 5737 5736 5737 5737 5736 5736 5734 5733 5731 5729 5727 5724 5721 5718 5715 5711 5708 5706 5702 5699 5698 5695 5694 5693 5692 5692 5690 5690 5692 5694 5698 5702 5703 5705
5729 5730 5731 5731 5731 5733 5732 5734 5734 5734 5734 5734 5734 5734 5734 5734 5734 5733 5731 5728 5726 5724 5723 5720 5718 5716 5712 5709 5707 5704 5702 5700 5698 5697 5695 5694 5694 5694 5692 5693 5695 5697 5697 5700 5703
5725 5726 5726 5727 5728 5728 5730 5730 5730 5730 5730 5731 5731 5731 5731 5732 5731 5730 5729 5728 5725 5723 5721 5718 5716 5715 5712 5709 5707 5704 5703 5702 5700 5698 5696 5695 5694 5694 5695 5694 5694 5695 5696 5696 5698
5720 5722 5722 5722 5723 5723 5725 5726 5726 5727 5727 5727 5727 5728 5728 5727 5727 5727 5726 5724 5722 5720 5718 5717 5714 5713 5711 5709 5707 5704 5703 5700 5699 5699 5697 5695 5694 5692 5692 5693 5694 5692 5694 5695 5695
5714 5716 5717 5718 5719 5719 5720 5721 5720 5722 5723 5724 5723 5723 5723 5723 5723 5723 5722 5721 5719 5717 5715 5714 5714 5713 5710 5707 5706 5705 5702 5700 5698 5696 5696 5695 5695 5693 5692 5692 5693 5694 5694 5695 5697
5706 5708 5711 5712 5714 5715 5716 5716 5717 5717 5717 5718 5718 5718 5718 5718 5719 5718 5717 5715 5715 5713 5711 5711 5711 5709 5709 5705 5704 5702 5700 5699 5698 5697 5693 5692 5693 5691 5691 5692 5692 5692 5694 5694 5693
5696 5699 5702 5705 5707 5708 5709 5709 5709 5711 5711 5712 5711 5713 5712 5713 5713 5713 5711 5710 5710 5709 5708 5707 5707 5706 5706 5705 5702 5700 5698 5697 5695 5694 5693 5691 5690 5689 5689 5689 5689 5689 5689 5691 5691
5687 5690 5694 5696 5698 5700 5700 5701 5702 5704 5702 5704 5705 5705 5705 5706 5706 5707 5706 5706 5704 5704 5703 5703 5703 5703 5702 5701 5700 5699 5695 5694 5694 5692 5690 5689 5688 5686 5686 5685 5685 5685 5685 5685 5685
5675 5680 5684 5687 5690 5691 5692 5694 5695 5695 5693 5694 5698 5698 5698 5699 5698 5699 5700 5700 5699 5699 5698 5699 5699 5699 5697 5697 5695 5695 5693 5691 5690 5689 5687 5686 5686 5683 5681 5681 5682 5681 5681 5680 5680
5664 5669 5673 5678 5680 5682 5683 5688 5687 5686 5687 5688 5689 5689 5691 5691 5692 5691 5691 5692 5693 5693 5693 5693 5693 5694 5693 5692 5691 5691 5690 5687 5686 5683 5683 5683 5682 5680 5678 5677 5676 5677 5676 5675 5674
5652 5659 5662 5666 5670 5673 5676 5677 5679 5678 5679 5681 5680 5682 5683 5683 5684 5684 5684 5685 5686 5687 5688 5688 5688 5689 5688 5687 5687 5688 5685 5683 5683 5679 5678 5677 5678 5675 5674 5674 5673 5671 5671 5670 5669
Wind_Speed
27 26 24 24 25 26 26 25 24 26 26 26 28 29 31 33 31 28 27 27 29 31 33 37 39 45 52 50 42 38 41 43 46 52 71 69 67 66 56 48 54 53 41 29 42
27 27 26 24 26 27 27 26 23 24 24 26 28 29 32 34 31 28 27 28 30 32 35 38 43 51 40 30 33 42 41 44 48 55 64 62 51 58 60 53 59 59 48 49 40
29 27 26 26 27 27 24 24 24 24 24 26 27 30 31 33 30 28 27 29 31 33 35 41 49 42 33 33 40 44 51 52 46 49 48 45 45 47 57 57 60 58 56 51 49
30 28 29 27 27 26 25 25 25 24 24 26 27 30 32 33 30 28 27 30 32 34 39 45 47 29 28 34 47 47 49 56 47 28 30 32 39 48 58 60 58 57 57 57 59
30 30 29 27 27 26 26 25 26 25 25 27 28 29 32 32 29 27 27 28 31 34 41 48 43 30 39 40 48 47 53 56 35 28 29 25 34 42 53 64 61 58 56 55 47
28 28 28 27 26 26 25 25 25 26 27 27 28 29 32 31 28 25 28 28 30 34 42 46 41 36 35 40 53 53 56 51 27 20 10 17 25 46 51 63 61 60 52 50 43
28 26 26 25 26 25 26 25 26 27 28 26 27 29 31 29 25 24 27 27 30 35 41 41 39 32 35 44 58 50 55 40 26 19 8 6 18 21 51 56 59 60 63 51 54
26 26 25 24 23 25 25 25 26 27 26 25 26 28 30 27 24 23 25 26 29 34 39 36 36 30 41 50 57 50 51 32 25 21 7 6 19 25 50 55 65 56 42 53 53
25 25 25 24 22 24 25 25 25 25 26 26 27 27 27 24 21 21 23 24 27 33 37 30 32 30 39 45 55 50 49 29 26 20 16 10 12 19 48 52 52 63 39 55 48
25 25 24 24 23 24 25 25 24 24 25 26 25 26 25 21 19 20 21 24 26 31 35 27 26 32 40 46 53 48 46 36 29 26 18 15 11 19 44 50 58 58 43 51 51
26 25 24 24 24 24 25 25 24 25 25 24 23 24 23 18 17 19 20 21 25 29 32 28 29 28 36 42 52 41 44 36 28 26 21 19 19 19 36 36 52 41 42 50 35
25 26 26 25 24 23 23 24 24 24 23 23 23 22 19 15 15 18 20 19 23 27 30 32 29 25 30 36 42 46 36 38 32 27 22 22 26 27 29 26 40 37 41 39 29
23 23 24 24 24 23 23 24 24 23 22 23 21 20 16 13 14 16 18 18 20 23 28 31 30 20 27 28 34 45 35 31 30 24 30 37 36 27 22 25 31 24 27 31 26
27 26 25 25 25 24 23 22 22 20 20 21 18 14 12 11 12 15 17 18 18 21 23 26 27 22 20 26 26 35 40 23 28 20 19 29 18 16 25 22 19 28 23 23 23
24 25 24 24 24 23 22 20 20 19 20 17 15 11 11 11 11 14 16 18 17 19 21 24 27 26 19 23 25 23 29 33 22 16 15 23 24 25 25 16 17 9 16 30 31
18 19 20 21 23 22 21 18 16 17 18 16 14 13 10 9 11 14 15 16 18 18 19 21 25 26 25 19 20 20 19 22 25 16 13 10 8 3 6 6 13 7 12 9 20
15 15 16 15 16 17 16 13 14 15 15 13 11 9 10 9 11 14 16 16 17 16 17 19 21 24 25 21 19 14 13 14 16 18 12 12 7 6 8 4 1 8 13 9 11
17 16 15 15 13 14 13 12 13 15 15 13 12 12 10 10 13 15 17 17 17 16 14 17 18 21 22 23 21 16 13 5 4 8 10 11 15 12 16 7 1 3 5 8 14
18 17 17 16 13 12 13 14 15 16 14 13 14 14 14 14 15 15 18 19 17 17 16 15 17 18 21 21 22 21 16 7 3 3 4 6 7 8 7 7 8 5 3 6 6
20 19 17 15 14 13 14 18 18 17 15 14 16 16 17 18 18 18 20 20 19 18 16 15 16 17 18 21 21 21 22 14 10 5 2 1 3 3 2 2 1 1 3 2 6
28 25 23 21 20 17 16 19 20 19 19 18 19 19 21 21 21 20 21 20 19 16 16 15 14 17 17 17 19 20 21 20 15 13 7 4 3 5 8 8 8 8 8 8 8
32 32 28 28 23 17 18 23 25 25 23 23 24 24 24 24 22 22 21 22 19 17 16 16 14 15 18 18 18 18 19 19 18 14 12 8 5 6 8 12 15 14 15 16 15
37 35 33 31 29 26 24 27 30 29 30 28 27 28 27 26 27 24 24 22 20 18 16 16 14 13 17 19 19 19 20 19 18 19 16 12 9 8 8 10 12 15 18 21 23
42 39 37 34 32 29 29 30 28 27 32 33 32 30 30 29 29 27 25 23 21 19 17 16 16 13 15 18 18 19 20 20 19 18 17 18 15 12 8 8 11 15 17 18 20
48 44 40 35 31 30 31 30 25 28 29 32 32 34 33 30 29 27 27 25 23 20 18 16 16 14 15 18 19 20 20 20 19 19 19 19 18 18 14 13 12 11 13 14 18
53 48 43 41 36 36 34 28 29 29 29 30 29 29 28 27 26 25 27 24 23 21 19 16 16 16 18 19 21 20 21 20 20 17 18 18 18 20 18 17 14 14 14 14 14
53 47 45 45 40 38 35 33 35 34 33 29 29 30 27 28 28 27 25 23 22 21 18 17 17 17 18 21 21 20 21 20 22 19 17 17 17 21 18 21 19 17 17 16 17
Wind_Direction
288 290 295 290 303 299 297 298 301 310 311 314 315 318 322 322 320 320 317 319 321 321 324 320 311 304 303 303 296 300 314 303 290 291 275 270 259 251 244 230 221 224 216 209 229
283 285 291 291 299 301 301 293 297 302 308 310 314 316 320 322 321 322 318 321 323 328 327 315 310 312 306 309 316 322 331 312 304 280 267 260 247 232 234 229 213 227 223 228 233
279 280 287 288 298 303 302 298 303 300 304 309 314 316 319 323 322 322 319 323 328 331 324 316 316 311 299 309 326 328 330 326 316 287 270 252 242 222 210 212 210 227 222 225 225
279 283 290 291 296 299 300 302 306 303 308 313 316 318 321 324 323 321 322 328 332 333 323 318 324 294 311 315 327 336 336 335 324 282 278 247 228 220 203 203 204 221 226 224 215
277 281 284 292 295 297 299 302 305 306 311 316 320 318 323 323 324 320 325 333 332 335 324 326 333 309 309 322 336 342 345 339 324 294 275 242 223 211 198 199 201 212 227 224 226
276 280 284 288 293 295 296 300 303 305 312 314 318 317 322 322 322 320 328 334 338 334 327 332 334 325 337 345 354 352 352 347 349 344 266 231 221 211 194 204 196 201 212 215 212
280 282 287 292 293 293 296 300 303 306 312 315 318 319 321 321 322 323 330 337 339 335 330 338 337 334 352 352 356 359 354 356 353 348 312 224 207 202 190 197 194 194 202 213 207
280 283 287 288 290 292 296 300 303 307 311 315 318 318 317 320 321 327 331 339 341 336 334 340 339 344 1 358 1 3 358 5 12 10 7 164 190 200 189 184 192 188 199 211 215
279 282 285 285 286 292 296 299 302 307 311 314 316 315 317 318 318 327 331 339 341 338 338 343 337 345 1 6 6 14 10 20 24 21 63 133 171 198 180 180 180 186 195 199 209
277 280 283 284 286 291 294 296 302 306 310 314 315 314 316 317 319 325 334 339 341 341 343 340 336 355 356 14 13 28 16 24 32 37 61 79 118 159 173 181 178 176 197 195 202
278 279 281 283 285 288 292 296 301 305 308 312 311 310 312 312 318 323 334 340 339 344 350 342 334 347 354 17 20 34 31 28 53 50 69 94 101 123 171 184 191 189 187 192 200
277 279 279 281 284 288 291 293 297 302 308 306 302 306 306 309 317 324 335 340 341 345 347 348 347 345 355 14 22 35 41 51 61 71 78 99 111 108 142 162 191 182 186 190 200
280 283 286 286 285 286 290 294 297 301 303 299 301 301 301 307 315 324 332 338 342 346 350 351 346 353 349 7 20 31 42 57 60 80 93 118 114 98 108 137 158 171 183 186 195
280 283 285 287 286 287 289 293 298 299 297 297 295 292 294 303 313 325 332 336 342 345 355 352 346 348 342 345 16 26 39 53 43 52 81 66 53 66 79 106 124 172 172 191 206
280 282 285 288 288 288 291 293 295 296 294 293 290 287 290 302 318 329 332 335 339 343 350 352 351 346 342 337 349 25 29 48 43 53 60 95 96 84 91 48 100 121 168 183 198
280 285 286 289 289 289 290 292 291 290 288 284 280 284 288 300 319 332 338 334 333 339 345 354 352 348 350 351 347 1 38 39 62 82 80 53 56 8 62 70 103 160 203 224 202
273 280 287 291 295 293 290 288 287 288 290 284 279 279 287 301 319 330 337 335 328 333 338 344 352 353 353 352 357 2 15 30 58 69 79 83 43 359 350 3 167 165 180 195 222
268 274 282 291 294 293 289 284 285 286 289 288 283 286 292 299 312 325 331 334 324 325 333 335 347 348 354 359 353 355 360 12 73 83 85 73 65 62 56 48 259 101 175 218 225
270 274 274 276 286 289 284 280 281 282 285 284 283 286 292 299 306 318 323 330 323 319 325 327 334 338 343 353 357 359 357 14 61 354 57 69 38 28 52 67 46 24 219 218 244
278 273 271 269 271 278 279 277 273 278 282 284 284 289 291 297 302 305 310 320 321 317 319 321 326 328 334 340 348 353 350 351 358 1 359 241 273 312 197 159 42 65 14 256 225
263 266 273 270 272 267 266 268 269 272 278 283 286 292 295 297 302 305 306 311 313 309 310 310 316 319 322 329 334 340 346 349 357 1 348 322 253 239 235 231 220 213 211 209 220
257 260 267 270 268 271 271 272 272 272 272 275 279 284 287 294 298 302 304 305 306 301 301 304 307 315 316 319 321 325 330 339 343 353 357 345 317 274 231 235 239 243 244 239 234
255 258 261 266 263 266 270 279 277 274 272 271 274 276 281 288 294 298 300 301 300 296 293 293 295 305 310 312 314 319 321 325 329 339 342 334 331 318 293 264 245 245 249 254 255
253 259 260 264 265 264 266 277 281 276 270 272 273 273 275 282 288 293 296 292 290 285 284 285 288 293 306 305 309 310 309 313 319 323 329 326 329 331 323 303 282 262 252 254 261
250 258 257 260 263 264 270 274 283 276 267 267 272 274 274 279 282 285 287 287 284 279 276 278 283 284 297 302 309 304 303 305 309 311 316 319 326 324 319 312 307 292 282 270 261
246 253 251 258 258 262 267 275 276 272 272 270 269 267 276 279 277 277 278 281 279 273 271 273 277 276 290 304 306 301 296 296 297 303 311 316 318 314 320 324 318 303 293 286 274
247 249 256 259 255 258 263 265 271 272 270 267 266 273 275 276 271 270 273 273 273 269 267 272 269 274 287 294 299 291 289 297 296 298 302 308 314 306 318 319 316 309 305 294 289